"Time","Temp","Dewpoint","Humidity","Pressure","Direction","Speed","Gust","Precip","PrecipRate"
"00:04:56","58.6","50.3","74","29.92","170","3.5","10.8","0.00","0.00"
"00:09:57","58.5","50.2","74","29.92","164","2.9","10.8","0.00","0.00"
"00:14:56","58.5","50.4","74.7","29.92","165","2.7","8.1","0.00","0.00"
"00:19:59","58.4","50.5","75","29.91","157","2.8","7.2","0.00","0.00"
"00:24:56","58.3","50.4","75","29.91","159","2.6","7.2","0.00","0.00"
"00:29:58","58.2","50.3","75","29.91","162","2.7","8.4","0.00","0.00"
"00:34:56","58.2","50.3","75","29.90","173","3.9","8.1","0.00","0.00"
"00:39:59","58.1","50.2","75","29.90","152","3.4","8.4","0.00","0.00"
"00:44:57","58.1","50.2","75","29.90","146","4.1","8.4","0.00","0.00"
"00:49:56","58.1","50.4","75.5","29.90","167","2.7","8.1","0.00","0.00"
"00:54:57","58","50.5","75.9","29.90","139","2.8","6","0.00","0.00"
"00:59:59","57.9","50.4","76","29.90","192","2.7","8.4","0.00","0.00"
"01:04:56","57.7","50.2","76","29.90","186","2.3","7.2","0.00","0.00"
"01:09:57","57.7","50.2","76","29.90","147","2.3","6.9","0.00","0.00"
"01:14:59","57.5","50.3","76.7","29.90","155","1.4","4.8","0.00","0.00"
"01:19:57","57.4","50.2","77","29.89","153","1","2.4","0.00","0.00"
"01:24:59","57.2","50.1","77","29.89","151","1.3","4.8","0.00","0.00"
"01:29:57","57.1","50.3","78","29.89","150","1.6","4.6","0.00","0.00"
"01:34:59","57","50.2","78","29.88","152","1.3","3.6","0.00","0.00"
"01:39:58","56.9","50.2","78.1","29.88","152","0.6","3.6","0.00","0.00"
"01:44:56","56.8","50.4","79","29.88","152","0.6","3.5","0.00","0.00"
"01:49:58","56.7","50.3","79","29.88","153","1.1","3.6","0.00","0.00"
"01:54:59","56.6","50.2","79","29.88","152","1.5","3.6","0.00","0.00"
"01:59:57","56.6","50.2","79","29.88","148","2","6","0.00","0.00"
"02:04:57","56.6","50.2","79","29.88","148","2.7","6","0.00","0.00"
"02:09:57","56.6","50.2","79","29.88","154","2.3","4.8","0.00","0.00"
"02:14:59","56.6","50.3","79.5","29.88","149","2.5","6","0.00","0.00"
"02:19:57","56.6","50.5","80","29.87","160","2.4","8.4","0.00","0.00"
"02:24:58","56.5","50.4","80","29.87","168","2.8","6","0.00","0.00"
"02:29:56","56.4","50.3","80","29.87","162","2.3","5.8","0.00","0.00"
"02:34:57","56.3","50.2","80","29.87","150","2.9","6","0.00","0.00"
"02:39:56","56.3","50.2","80","29.87","146","2.8","6","0.00","0.00"
"02:44:56","56.2","50.3","80.8","29.87","148","3","6","0.00","0.00"
"02:49:58","56.1","50.3","81","29.86","150","3.1","6","0.00","0.00"
"02:54:58","56.1","50.3","81.1","29.86","148","2.6","7.2","0.00","0.00"
"02:59:56","55.9","50.5","82","29.86","164","2.7","6","0.00","0.00"
"03:04:58","55.9","50.5","82","29.85","168","3.1","7.2","0.00","0.00"
"03:09:58","55.9","50.5","82","29.85","173","3.5","7.2","0.00","0.00"
"03:14:56","55.8","50.6","82.7","29.85","175","3.3","8.4","0.00","0.00"
"03:19:58","55.8","50.7","83","29.84","167","3.4","10.8","0.00","0.00"
"03:24:59","55.7","50.6","83","29.84","172","3.4","10.4","0.00","0.00"
"03:29:56","55.7","50.6","83","29.84","164","2.2","8.4","0.00","0.00"
"03:34:57","55.7","50.6","83","29.83","151","2.1","4.8","0.00","0.00"
"03:39:57","55.7","50.7","83.4","29.83","158","1.8","4.8","0.00","0.00"
"03:44:58","55.6","50.8","84","29.83","165","1.5","4.8","0.00","0.00"
"03:49:57","55.7","50.9","84","29.82","147","1.8","4.8","0.00","0.00"
"03:54:57","55.8","51","84","29.82","153","2","4.8","0.00","0.00"
"03:59:59","55.9","51.1","84","29.82","161","2.9","7.2","0.00","0.00"
"04:04:59","56","51.2","84.1","29.82","201","2.9","8.4","0.00","0.00"
"04:09:58","56.1","51.7","85","29.82","167","3","7.2","0.00","0.00"
"04:14:59","56.1","51.6","84.7","29.82","186","2.1","7.2","0.00","0.00"
"04:19:59","56.1","51.7","85","29.81","183","3.2","6.9","0.00","0.00"
"04:24:57","56.1","51.7","85","29.81","185","3.3","6","0.00","0.00"
"04:29:58","56.1","51.7","85","29.81","183","3.8","8.4","0.00","0.00"
"04:34:56","56.1","51.7","85","29.81","164","2.5","6","0.00","0.00"
"04:39:58","56.1","51.7","85","29.81","157","4.2","12","0.00","0.00"
"04:44:59","56.1","51.7","85","29.81","149","2.7","7.2","0.00","0.00"
"04:49:56","56","51.9","85.9","29.81","179","3.8","12","0.00","0.00"
"04:54:57","55.9","51.8","86","29.81","191","4.3","7.2","0.00","0.00"
"04:59:58","55.9","51.8","86","29.81","178","3.7","10.8","0.00","0.00"
"05:04:59","55.9","51.8","86","29.80","170","2.4","10.4","0.00","0.00"
"05:09:59","55.8","51.8","86.3","29.80","153","2.1","7.2","0.00","0.00"
"05:14:57","55.8","52","87","29.80","160","3.8","8.4","0.00","0.00"
"05:19:58","55.8","52","87","29.79","153","3.1","8.1","0.00","0.00"
"05:24:59","55.8","52","87","29.79","170","3.2","8.4","0.00","0.00"
"05:29:57","55.8","52","87","29.79","133","2.2","5.8","0.00","0.00"
"05:34:57","55.7","52.2","88","29.78","139","1.8","4.6","0.00","0.00"
"05:39:56","55.7","52.2","88","29.78","134","2.1","4.8","0.00","0.00"
"05:44:57","55.7","52.2","88","29.78","132","1.8","6","0.00","0.00"
"05:49:59","55.6","52.1","88","29.78","132","1.7","3.6","0.00","0.00"
"05:54:56","55.6","52.3","88.6","29.78","163","1.5","4.8","0.00","0.00"
"05:59:57","55.5","52.3","89","29.78","173","2.3","7.2","0.00","0.00"
"06:04:58","55.5","52.3","89","29.77","132","2","6","0.00","0.00"
"06:09:59","55.5","52.3","89","29.77","160","1.9","4.8","0.00","0.00"
"06:14:57","55.5","52.3","89","29.77","175","2.6","7.2","0.00","0.00"
"06:19:58","55.5","52.3","89","29.76","171","2.7","10.8","0.00","0.00"
"06:24:59","55.5","52.3","89","29.76","163","3.6","9.6","0.00","0.00"
"06:29:56","55.5","52.3","89","29.76","169","4.4","9.2","0.00","0.00"
"06:34:57","55.5","52.3","89","29.76","146","4.2","10.8","0.00","0.00"
"06:39:56","55.5","52.3","89","29.76","158","3.4","8.1","0.00","0.00"
"06:44:57","55.6","52.4","89","29.76","168","4.4","13.2","0.00","0.00"
"06:49:58","55.5","52.3","89","29.76","164","4.6","9.6","0.00","0.00"
"06:54:58","55.5","52.3","89","29.76","162","4.5","10.8","0.00","0.00"
"06:59:56","55.5","52.3","89","29.76","162","3.8","8.4","0.00","0.00"
"07:04:56","55.5","52.3","89","29.76","167","4.4","13.2","0.00","0.00"
"07:09:56","55.5","52.3","89","29.76","166","2.9","8.4","0.00","0.00"
"07:14:59","55.5","52.3","89","29.76","167","3.8","8.4","0.00","0.00"
"07:19:56","55.5","52.3","89","29.76","196","3.7","8.4","0.00","0.00"
"07:24:57","55.5","52.3","89","29.76","165","4.6","10.8","0.00","0.00"
"07:29:58","55.6","52.3","89","29.76","165","3.5","7.2","0.00","0.00"
"07:34:59","55.6","52.4","89","29.75","169","4.5","13.2","0.00","0.00"
"07:39:58","55.6","52.4","89","29.75","170","3","8.1","0.00","0.00"
"07:44:59","55.6","52.4","89","29.75","170","3.3","8.4","0.00","0.00"
"07:49:56","55.6","52.4","89","29.75","165","3","8.1","0.00","0.00"
"07:54:58","55.6","52.4","89","29.75","158","3.7","8.4","0.00","0.00"
"07:59:58","55.6","52.4","89","29.75","174","3.6","7.2","0.00","0.00"
"08:04:59","55.6","52.4","89","29.75","177","3.3","7.2","0.00","0.00"
"08:09:59","55.7","52.5","89","29.75","160","3.2","8.4","0.00","0.00"
"08:14:58","55.7","52.5","88.8","29.76","178","3.8","8.1","0.00","0.00"
"08:19:59","55.8","52.4","88.5","29.76","174","3","6","0.00","0.00"
"08:24:59","55.8","52.6","89","29.76","158","4.2","12","0.00","0.00"
"08:29:56","55.9","52.5","88.4","29.76","166","3.4","11.5","0.00","0.00"
"08:34:57","56","52.6","88.3","29.75","173","3","8.1","0.00","0.00"
"08:39:59","56.2","52.7","88","29.75","170","3","8.4","0.00","0.00"
"08:44:59","56.3","52.7","87.8","29.75","166","3.8","8.1","0.00","0.00"
"08:49:56","56.3","52.6","87.2","29.75","155","4.2","8.4","0.00","0.00"
"08:54:58","56.3","52.6","87.1","29.75","151","3.9","10.8","0.00","0.00"
"08:59:58","56.4","52.7","87.3","29.75","154","4.4","8.4","0.00","0.00"
"09:04:59","56.4","52.6","87","29.74","164","4.5","10.8","0.00","0.00"
"09:09:59","56.4","52.6","87","29.74","169","4.6","10.8","0.00","0.00"
"09:14:57","56.5","52.7","87","29.74","161","3.3","9.6","0.00","0.00"
"09:19:57","56.5","52.7","87","29.74","159","3.9","12","0.00","0.00"
"09:24:59","56.6","52.8","87","29.74","157","4.5","10.8","0.00","0.00"
"09:29:56","56.6","52.7","86.8","29.74","168","4.1","10.4","0.00","0.00"
"09:34:57","56.6","52.8","87","29.73","170","3.3","7.2","0.00","0.00"
"09:39:56","56.6","52.8","86.8","29.73","171","3.3","7.2","0.00","0.00"
"09:44:57","56.8","52.9","86.8","29.73","176","2.7","6","0.00","0.00"
"09:49:59","57","53","86.4","29.73","160","3.5","8.4","0.00","0.00"
"09:54:56","57.2","53","86","29.73","139","2.9","7.2","0.00","0.00"
"09:59:57","57.3","53","85.5","29.73","167","4.5","12","0.00","0.00"
"10:04:58","57.6","53.2","85.5","29.72","169","3.8","8.4","0.00","0.00"
"10:09:58","57.8","53.4","85.3","29.72","195","3.6","10.8","0.00","0.00"
"10:14:59","58.3","53.6","84.6","29.72","172","5.4","15","0.00","0.00"
"10:19:58","58.7","53.9","83.8","29.72","169","4.3","9.2","0.00","0.00"
"10:24:58","59.3","54.2","83.1","29.72","199","5.6","15","0.00","0.00"
"10:29:59","59","53.6","82.4","29.72","196","5.5","10.4","0.00","0.00"
"10:34:59","58.8","53.6","83","29.71","174","3.7","8.1","0.00","0.00"
"10:39:58","58.9","53.7","83","29.71","191","4.1","8.4","0.00","0.00"
"10:44:59","58.9","53.5","82.2","29.71","171","4.7","10.8","0.00","0.00"
"10:49:57","58.8","53.5","82.6","29.70","174","5.1","13.2","0.00","0.00"
"10:54:58","58.9","53.9","83.5","29.70","198","4.1","12","0.00","0.00"
"10:59:59","59.2","53.7","82.1","29.70","189","5.9","14.4","0.00","0.00"
"11:04:56","59.6","54","81.7","29.69","180","4.1","10.4","0.00","0.00"
"11:09:56","59.9","54.3","81.5","29.69","195","4","13.2","0.00","0.00"
"11:14:59","60.2","54.3","80.7","29.69","210","4.4","12","0.00","0.00"
"11:19:56","60.6","54.4","80.2","29.69","178","4.5","13.2","0.00","0.00"
"11:24:57","60.7","54.3","79.4","29.69","212","5.8","15","0.00","0.00"
"11:29:58","60.6","54.3","79.7","29.69","202","4.1","12","0.00","0.00"
"11:34:56","60.7","54","78.9","29.68","173","4.1","12","0.00","0.00"
"11:39:58","60.5","53.8","78.7","29.68","191","5.7","12","0.00","0.00"
"11:44:59","60.5","54","79.1","29.68","189","5.5","10.8","0.00","0.00"
"11:49:56","60.7","54.1","79","29.67","195","5.4","14.4","0.00","0.00"
"11:54:58","60.8","54","78.6","29.67","194","6.2","15","0.00","0.00"
"11:59:59","60.7","54.1","79","29.67","172","3.4","8.1","0.00","0.00"
"12:04:56","60.9","54.5","79.3","29.67","178","3.6","8.4","0.00","0.00"
"12:09:56","62.2","55.5","78.7","29.67","194","6.7","13.2","0.00","0.00"
"12:14:58","63.3","55.9","76.7","29.67","196","5","13.2","0.00","0.00"
"12:19:56","63.7","55.7","75.3","29.65","178","6.3","13.2","0.00","0.00"
"12:24:57","63.7","55.4","74.5","29.65","174","6.7","15.6","0.00","0.00"
"12:29:59","62.9","54.7","74.7","29.65","188","6.4","12.7","0.00","0.00"
"12:34:56","62.2","54.6","76.2","29.65","179","5.3","14.4","0.00","0.00"
"12:39:59","62.3","54.7","76.2","29.65","176","5.5","15","0.00","0.00"
"12:44:56","61.9","54.5","76.8","29.65","210","6.5","13.2","0.00","0.00"
"12:49:58","62.2","55","77.4","29.64","184","3.5","7.2","0.00","0.00"
"12:54:56","62.5","55.1","76.8","29.64","194","4.2","13.2","0.00","0.00"
"12:59:58","63.1","55.6","76.3","29.64","203","5.2","12","0.00","0.00"
"13:04:58","63.3","55.2","75.1","29.63","198","5.1","8.4","0.00","0.00"
"13:09:58","62.9","54.9","75.2","29.63","202","5.9","16.1","0.00","0.00"
"13:14:57","62.8","55","75.8","29.63","180","4","7.2","0.00","0.00"
"13:19:59","62.7","55.1","76.5","29.62","193","3.3","7.2","0.00","0.00"
"13:24:56","62.4","54.7","76.1","29.62","180","5.4","12","0.00","0.00"
"13:29:58","62.1","54.6","76.7","29.62","181","4","8.1","0.00","0.00"
"13:34:56","61.9","54.5","76.7","29.61","166","3.9","10.8","0.00","0.00"
"13:39:59","61.9","54.8","77.6","29.61","187","3.7","7.2","0.00","0.00"
"13:44:56","61.8","54.8","77.7","29.61","166","3.6","8.4","0.00","0.00"
"13:49:58","61.9","54.7","77.3","29.60","164","5.5","13.2","0.00","0.00"
"13:54:59","61.8","54.7","77.3","29.60","192","5.1","10.8","0.00","0.00"
"13:59:57","61.8","54.9","77.9","29.60","201","5.4","13.2","0.00","0.00"
"14:04:58","61.8","54.6","77.2","29.60","185","5.6","13.2","0.00","0.00"
"14:09:58","61.8","54.8","77.6","29.60","195","4.7","9.6","0.00","0.00"
"14:14:56","61.9","54.9","77.8","29.60","208","5","12","0.00","0.00"
"14:19:58","61.9","55.2","78.5","29.59","201","3.6","10.8","0.00","0.00"
"14:24:56","61.8","54.8","77.7","29.59","189","5.1","10.8","0.00","0.00"
"14:29:58","61.5","54.8","78.7","29.59","168","3.3","7.2","0.00","0.00"
"14:34:56","61.1","55.1","80.5","29.58","169","2.7","6","0.00","0.00"
"14:39:59","60.7","55.2","82.1","29.58","202","3.4","7.2","0.00","0.00"
"14:44:58","60.3","55.1","83.3","29.58","207","3.1","6","0.00","0.00"
"14:49:58","60","55.4","84.6","29.58","204","2.2","4.8","0.01","0.01"
"14:54:56","59.9","55.5","85.4","29.58","203","1.9","4.6","0.01","0.01"
"14:59:58","59.9","55.7","86","29.58","203","1.2","3.6","0.01","0.01"
"15:04:56","59.9","55.7","86","29.57","189","1.3","3.6","0.01","0.01"
"15:09:56","59.9","56","86.8","29.57","185","1.1","3.5","0.01","0.01"
"15:14:59","59.9","56","87","29.57","184","1.4","3.6","0.01","0.01"
"15:19:57","59.9","55.7","86.2","29.57","146","2","4.8","0.01","0.01"
"15:24:59","59.7","55.7","86.6","29.57","147","1.2","3.6","0.01","0.01"
"15:29:57","59.7","55.8","87","29.57","183","2.1","4.8","0.01","0.01"
"15:34:59","59.6","55.7","87","29.56","160","2.3","6","0.01","0.01"
"15:39:58","59.5","55.7","87.2","29.56","181","2.9","6","0.01","0.01"
"15:44:56","59.5","55.6","87.2","29.56","160","1.7","3.6","0.01","0.01"
"15:49:58","59.5","55.8","87.7","29.56","161","1.6","3.6","0.01","0.01"
"15:54:59","59.5","55.9","88","29.56","175","2","4.8","0.01","0.00"
"15:59:58","59.5","55.9","87.8","29.56","198","2.2","6","0.01","0.00"
"16:04:59","59.6","56","88","29.55","194","1.6","3.6","0.01","0.00"
"16:09:59","59.7","56","87.7","29.55","189","2.9","7.2","0.01","0.00"
"16:14:58","59.8","56","87.2","29.55","184","2.5","4.8","0.01","0.00"
"16:19:56","59.9","56.2","87.8","29.55","183","1.1","3.6","0.01","0.00"
"16:24:57","59.9","56.1","87.5","29.55","183","2","4.8","0.01","0.00"
"16:29:56","59.9","56","87.1","29.55","198","1","4.6","0.01","0.00"
"16:34:57","60","56.3","87.7","29.55","198","0.2","2.4","0.01","0.00"
"16:39:56","60","56.1","87","29.55","192","1","3.6","0.01","0.00"
"16:44:57","60.1","56.2","87","29.55","190","0.5","2.4","0.01","0.00"
"16:49:57","60.1","56.2","86.8","29.53","190","1.2","3.6","0.01","0.00"
"16:54:56","60.1","55.9","86","29.53","184","1.1","4.8","0.01","0.00"
"16:59:58","60.1","55.9","86","29.53","177","1","3.6","0.01","0.00"
"17:04:59","60","55.8","86","29.52","177","0.9","2.4","0.01","0.00"
"17:09:59","59.9","55.7","86","29.52","177","0.6","2.4","0.01","0.00"
"17:14:59","59.8","55.7","86.2","29.52","177","0","0","0.01","0.00"
"17:19:57","59.7","55.8","87","29.52","177","0","0","0.01","0.00"
"17:24:59","59.7","55.8","87","29.52","177","0","0","0.01","0.00"
"17:29:57","59.6","55.7","87","29.52","177","0","0","0.01","0.00"
"17:34:59","59.5","55.6","87","29.52","177","0","0","0.01","0.00"
"17:39:56","59.5","55.9","88","29.52","177","0","0","0.01","0.00"
"17:44:58","59.4","55.8","88","29.52","177","0","0","0.01","0.00"
"17:49:56","59.4","55.8","88","29.51","177","0","0","0.01","0.00"
"17:54:59","59.3","55.7","88","29.51","177","0","0","0.01","0.00"
"17:59:58","59.3","55.7","88","29.51","177","0","0","0.01","0.00"
"18:04:56","59.3","55.7","88","29.51","177","0","0","0.01","0.00"
"18:09:56","59.1","55.5","88","29.51","177","0","0","0.01","0.00"
"18:14:59","59.1","55.5","88","29.51","177","0","0","0.01","0.00"
"18:19:58","59","55.5","88.3","29.51","177","0","0","0.01","0.00"
"18:24:57","58.9","55.7","89","29.51","177","0","0","0.01","0.00"
"18:29:56","58.8","55.6","89","29.52","177","0","0","0.01","0.00"
"18:34:58","58.7","55.5","89","29.52","177","0","0","0.01","0.00"
"18:39:58","58.5","55.3","89","29.52","177","0","0","0.01","0.00"
"18:44:56","58.3","55.1","89","29.52","177","0","0","0.01","0.00"
"18:49:59","58.1","55.2","89.9","29.52","177","0","0","0.01","0.00"
"18:54:58","58","55.1","90","29.52","177","0","0","0.01","0.00"
"18:59:57","57.8","54.9","90","29.52","177","0","0","0.01","0.00"
"19:04:59","57.7","54.9","90.5","29.52","177","0","0","0.01","0.00"
"19:09:56","57.5","54.9","91","29.52","177","0","0","0.01","0.00"
"19:14:56","57.4","54.8","91","29.52","177","0","0","0.01","0.00"
"19:19:59","57.3","54.8","91.3","29.52","177","0","0","0.01","0.00"
"19:24:57","57.3","55","92","29.52","177","0","0","0.01","0.00"
"19:29:59","57.3","55","92","29.52","177","0","0","0.01","0.00"
"19:34:58","57.2","54.9","92","29.52","177","0","0","0.01","0.00"
"19:39:58","57.1","54.8","92","29.52","177","0","0","0.01","0.00"
"19:44:56","56.9","54.6","92","29.52","177","0","0","0.01","0.00"
"19:49:59","56.9","54.6","92.1","29.52","177","0","0","0.01","0.00"
"19:54:57","56.9","54.9","93","29.52","177","0","0","0.01","0.00"
"19:59:56","56.9","54.9","93","29.52","177","0","0","0.01","0.00"
"20:04:58","56.9","54.9","93","29.52","177","0","0","0.01","0.00"
"20:09:58","56.9","54.9","93","29.52","177","0","0","0.01","0.00"
"20:14:58","56.9","54.9","93","29.52","177","0","0","0.01","0.00"
"20:19:57","56.9","54.9","93","29.51","177","0","0","0.01","0.00"
"20:24:59","56.9","54.9","93","29.51","177","0","0","0.01","0.00"
"20:29:57","56.8","55","93.6","29.51","177","0","0","0.01","0.00"
"20:34:59","56.9","55.2","94","29.51","177","0","0","0.01","0.00"
"20:39:59","56.9","55.2","94","29.51","177","0","0","0.01","0.00"
"20:44:57","56.9","55.2","94","29.51","178","0","1.2","0.01","0.00"
"20:49:56","57","55.3","94","29.51","219","1.4","4.8","0.01","0.00"
"20:54:57","56.9","54.8","92.7","29.51","317","4.9","12","0.01","0.00"
"20:59:59","56.6","53.9","90.7","29.52","311","3.7","10.8","0.01","0.00"
"21:04:56","56.2","53","89","29.52","308","2.8","9.6","0.01","0.00"
"21:09:56","55.9","52.6","88.7","29.52","346","1.9","7.2","0.01","0.00"
"21:14:56","55.7","52.5","89","29.52","323","1.2","4.8","0.01","0.00"
"21:19:58","55.5","52.3","89","29.52","329","1.1","4.8","0.01","0.00"
"21:24:56","55.4","52.2","89","29.52","346","1","6","0.01","0.00"
"21:29:59","55.3","52.2","89.5","29.52","348","1","3.6","0.01","0.00"
"21:34:57","55.1","52.2","90","29.51","348","0","1.2","0.01","0.00"
"21:39:57","55","52.1","90","29.51","348","0.5","2.4","0.02","0.00"
"21:44:59","54.8","52.1","90.6","29.51","348","0.5","2.4","0.02","0.01"
"21:49:57","54.7","52.1","91","29.51","326","1.8","4.8","0.02","0.01"
"21:54:59","54.6","52","91","29.51","341","1.1","3.6","0.02","0.01"
"21:59:58","54.5","51.9","91","29.51","344","0.3","2.4","0.02","0.01"
"22:04:56","54.4","51.8","91","29.51","344","0.1","1.2","0.02","0.01"
"22:09:56","54.3","51.8","91.4","29.51","344","0.1","1.2","0.02","0.01"
"22:14:56","54.2","51.9","92","29.51","344","0","1.2","0.02","0.01"
"22:19:59","54.1","51.8","92","29.50","344","0.1","2.4","0.02","0.01"
"22:24:57","54.1","51.8","92","29.50","344","0","1.2","0.02","0.01"
"22:29:56","54.1","51.8","92","29.50","344","0","0","0.02","0.01"
"22:34:58","54","51.8","92.2","29.50","344","0","0","0.03","0.02"
"22:39:58","53.9","51.9","93","29.50","344","0","0","0.03","0.02"
"22:44:56","53.9","51.9","93","29.50","328","1.2","6","0.03","0.01"
"22:49:59","53.9","51.9","93","29.50","328","0.5","3.6","0.03","0.01"
"22:54:57","53.8","51.8","93","29.50","328","0.9","4.8","0.03","0.01"
"22:59:59","53.7","51.7","93","29.50","328","1.3","3.6","0.03","0.01"
"23:04:56","53.7","51.7","93","29.50","328","1.1","3.5","0.03","0.01"
"23:09:56","53.7","51.7","93","29.50","325","0.8","2.4","0.03","0.01"
"23:14:59","53.6","51.6","93","29.50","325","0.8","3.6","0.03","0.01"
"23:19:58","53.5","51.3","92.4","29.49","325","0.6","3.5","0.03","0.01"
"23:24:56","53.4","51.2","92.4","29.49","325","0.3","1.2","0.03","0.01"
"23:29:58","53.2","51.2","93","29.49","325","0.2","2.4","0.03","0.01"
"23:34:57","53.1","51.1","93","29.49","325","0.1","1.2","0.03","0.01"
"23:39:57","53","51","93","29.49","325","0.3","2.4","0.03","0.00"
"23:44:59","52.9","50.9","93","29.49","325","0.4","2.4","0.03","0.00"
